Retour au catalogue

STARLINK-34250

ActifCommunicationsVLEO
NORAD 64690·PAYLOAD·🇺🇸 United States

Lancé Jun 28, 2025 depuis Cape Canaveral Space Force Station

Loading…

Prochains Passages (prochaines 24 heures)

TLE

FraisSource: CelesTrak SupGP

Époque: Sep 15, 2026, 03:11 UTC

1 64690C 25139AC  26258.13312500  .00051710  00000+0  15275-2 0  2586
2 64690  53.1596 323.0345 0001273  86.4350 355.4475 15.34371230    18

Suivez STARLINK-34250 en temps réel avec AllMySat

Download on the App Store